TimeMDT,TemperatureF,Dew PointF,Humidity,Sea Level PressureIn,VisibilityMPH,Wind Direction,Wind SpeedMPH,Gust SpeedMPH,PrecipitationIn,Events,Conditions,WindDirDegrees,DateUTC
12:53 AM,30.9,10.9,43,30.09,10.0,ENE,5.8,-,N/A,,Clear,70,2012-10-18 06:53:00
1:53 AM,30.9,9.0,40,30.10,10.0,ENE,6.9,-,N/A,,Clear,70,2012-10-18 07:53:00
2:53 AM,30.0,10.0,43,30.11,10.0,ENE,5.8,-,N/A,,Clear,70,2012-10-18 08:53:00
3:53 AM,28.9,10.9,47,30.10,10.0,NE,6.9,-,N/A,,Clear,50,2012-10-18 09:53:00
4:53 AM,28.9,12.0,49,30.10,10.0,ENE,5.8,-,N/A,,Clear,60,2012-10-18 10:53:00
5:53 AM,28.0,12.0,51,30.14,10.0,NE,9.2,-,N/A,,Clear,50,2012-10-18 11:53:00
6:53 AM,27.0,10.9,51,30.17,10.0,ENE,8.1,-,N/A,,Clear,70,2012-10-18 12:53:00
7:53 AM,27.0,12.0,53,30.18,10.0,NE,10.4,-,N/A,,Clear,50,2012-10-18 13:53:00
8:53 AM,39.0,12.0,33,30.17,10.0,East,4.6,-,N/A,,Clear,80,2012-10-18 14:53:00
9:53 AM,51.1,5.0,15,30.15,10.0,Calm,Calm,-,N/A,,Clear,0,2012-10-18 15:53:00
10:53 AM,59.0,3.9,11,30.13,10.0,WNW,9.2,-,N/A,,Clear,300,2012-10-18 16:53:00
11:53 AM,62.1,5.0,10,30.11,10.0,West,15.0,23.0,N/A,,Clear,280,2012-10-18 17:53:00
1:53 PM,68.0,8.1,10,30.07,10.0,WNW,16.1,24.2,N/A,,Clear,300,2012-10-18 19:53:00
2:53 PM,69.1,10.0,10,30.06,10.0,NW,18.4,24.2,N/A,,Clear,320,2012-10-18 20:53:00
3:53 PM,70.0,12.0,11,30.05,10.0,North,16.1,20.7,N/A,,Clear,350,2012-10-18 21:53:00
4:53 PM,69.1,10.9,11,30.05,10.0,NW,15.0,23.0,N/A,,Clear,320,2012-10-18 22:53:00
5:53 PM,66.0,12.0,12,30.06,10.0,NNW,15.0,29.9,N/A,,Clear,340,2012-10-18 23:53:00
6:53 PM,62.1,12.0,14,30.08,10.0,NW,10.4,-,N/A,,Clear,320,2012-10-19 00:53:00
8:53 PM,50.0,12.0,22,30.12,10.0,Calm,Calm,-,N/A,,Clear,0,2012-10-19 02:53:00
9:53 PM,45.0,14.0,29,30.10,10.0,ESE,5.8,-,N/A,,Clear,120,2012-10-19 03:53:00
10:53 PM,41.0,15.1,35,30.10,10.0,East,4.6,-,N/A,,Clear,80,2012-10-19 04:53:00
11:53 PM,37.9,16.0,41,30.09,10.0,NE,8.1,-,N/A,,Clear,40,2012-10-19 05:53:00